Theta_e
335 344 348 350 349 349 347 346 344 346 345 344 343 342 343 344 344 346 347 347 348 346 346 345 344 344 343 343 344 344 344 344 344 345 346 345 345 345 345 344 343 339 344
336 341 343 349 348 348 347 346 346 345 345 342 343 341 341 341 342 342 342 344 344 341 342 342 342 342 342 343 344 343 342 341 342 342 341 342 343 343 343 342 343 338 341
333 342 344 348 349 348 347 347 345 345 344 341 342 342 341 340 340 340 340 341 339 338 339 340 341 342 342 341 340 340 340 339 339 339 339 333 334 341 341 339 340 338 338
340 341 343 345 349 347 347 346 344 344 343 339 340 343 342 340 339 339 338 338 339 338 339 339 341 340 339 338 338 339 338 338 337 336 330 331 334 339 339 339 338 338 337
338 340 342 345 348 347 347 346 344 344 344 343 341 343 342 340 338 338 338 338 339 337 338 338 339 338 337 337 337 338 337 335 333 329 329 330 330 337 338 337 335 335 335
336 339 342 345 347 347 346 344 343 341 342 341 340 341 341 341 338 337 338 338 338 336 335 336 336 336 336 335 334 336 336 333 329 323 324 327 329 336 337 335 334 333 333
334 338 341 344 346 346 346 344 342 341 341 340 339 339 340 340 338 338 338 338 339 337 336 335 335 335 334 333 332 334 332 330 322 321 322 324 326 332 334 333 332 331 330
334 337 338 337 340 343 344 343 342 341 340 340 338 338 338 339 340 339 338 337 337 335 336 335 334 333 333 332 330 330 330 328 322 320 321 323 332 332 331 331 329 329 328
335 334 334 336 336 336 339 340 340 340 339 340 339 338 336 337 339 341 339 338 334 334 335 334 334 333 332 331 329 329 327 326 318 320 322 322 332 330 328 327 326 325 323
331 332 331 332 333 334 336 333 334 336 337 336 335 332 330 330 331 332 331 336 336 335 335 334 333 331 330 329 329 327 325 324 318 318 320 322 328 326 325 326 325 323 321
330 329 329 330 330 331 333 329 329 330 330 330 329 326 324 323 324 324 327 332 336 335 333 332 331 328 327 325 326 325 322 317 317 317 319 326 325 325 324 322 322 321 319
325 326 328 328 328 330 335 330 328 327 325 325 324 324 324 323 323 323 321 326 329 330 331 329 328 326 323 320 319 320 318 317 317 316 317 327 323 323 322 321 320 320 319
326 327 326 327 328 328 330 328 326 325 324 323 323 323 323 322 320 319 318 318 318 319 318 320 319 318 319 317 318 317 317 317 314 316 318 325 325 324 324 323 322 322 321
325 326 326 327 328 326 328 327 327 326 324 324 323 325 320 319 319 318 317 317 317 317 316 316 317 318 317 317 317 317 318 317 316 315 315 320 326 326 326 326 326 325 324
327 328 327 326 326 326 325 326 326 326 326 326 326 325 322 318 317 319 318 318 317 316 317 316 316 316 316 316 317 317 317 318 318 317 315 315 321 326 327 329 329 329 328
329 329 330 329 327 326 325 325 326 326 327 326 326 325 323 321 319 319 318 319 318 317 316 316 315 315 314 314 315 316 316 316 317 317 317 316 319 323 326 328 330 330 331
329 330 330 330 330 328 327 327 326 327 327 326 326 326 324 323 321 320 318 317 318 317 316 315 314 313 312 313 313 314 314 315 315 316 316 316 316 318 322 326 328 329 330
329 329 331 332 329 329 328 328 328 327 327 328 329 329 328 325 322 319 318 317 318 317 315 313 312 311 310 310 310 311 311 312 313 313 314 315 315 316 319 322 325 327 328
328 329 329 329 328 328 328 329 331 331 330 331 330 329 329 328 324 320 318 317 317 316 314 313 312 310 311 309 312 312 311 310 311 312 311 312 314 314 315 318 319 320 324
326 329 330 330 329 327 327 328 331 331 331 331 330 330 330 330 328 324 319 318 319 318 317 316 315 314 313 313 312 312 311 310 309 309 310 311 311 312 312 313 314 314 317
319 324 327 328 328 327 326 325 329 328 329 329 330 330 330 330 329 326 324 321 320 319 318 317 316 314 313 313 311 307 307 309 308 308 309 308 308 310 310 310 311 313 313
304 314 321 327 327 328 328 327 325 329 329 330 331 330 330 329 329 329 328 325 322 319 316 316 314 314 313 312 311 306 305 309 306 309 309 309 308 307 308 309 309 310 310
298 299 304 323 327 328 328 328 328 328 328 328 328 328 329 329 328 328 328 327 325 322 317 316 316 314 313 313 311 310 305 303 306 311 310 308 307 309 306 307 307 308 308
302 303 302 303 324 327 327 328 326 325 323 326 327 328 328 328 327 326 326 325 324 322 320 318 317 316 314 311 310 309 309 307 303 304 306 307 307 307 306 306 307 306 306
305 304 299 299 306 324 327 328 327 324 323 323 325 324 324 317 318 320 322 322 321 320 318 317 316 315 314 312 310 309 306 305 305 301 300 302 307 305 306 307 307 307 307
303 303 298 304 309 320 325 324 326 323 321 320 320 319 315 309 308 308 308 309 309 311 309 309 308 308 309 310 310 310 307 305 304 303 300 301 300 302 303 304 304 305 305
Wind_Speed
3 5 7 12 14 14 14 15 15 13 15 16 17 17 17 17 18 16 16 16 17 18 19 19 18 19 19 19 19 20 20 20 20 20 19 19 19 19 18 19 14 12 19
7 5 9 9 13 14 14 15 14 13 15 16 17 17 17 17 17 16 18 17 16 16 17 16 17 18 18 20 19 19 20 20 18 17 16 16 18 18 18 17 15 14 16
8 6 7 10 11 14 14 14 14 13 15 16 15 16 18 18 17 17 18 16 16 15 17 16 18 19 19 19 18 16 19 17 15 14 12 6 7 16 16 15 15 16 16
9 7 7 11 12 15 14 14 14 13 14 15 15 14 18 18 17 17 17 16 15 17 17 18 18 18 18 18 16 16 18 18 15 14 7 7 9 15 16 17 17 17 16
8 7 8 12 14 15 14 14 14 13 12 13 14 16 18 18 16 16 16 16 15 17 16 17 17 16 17 18 19 14 17 17 16 11 7 6 5 12 15 15 14 14 13
7 6 8 11 13 16 14 15 15 13 13 14 14 15 15 17 16 16 15 16 15 15 15 15 14 14 15 17 17 14 16 16 12 7 6 8 6 12 13 13 12 13 14
7 7 7 11 13 15 15 15 15 13 13 14 14 15 15 14 16 15 14 13 15 16 14 14 13 12 13 16 16 15 13 11 6 6 6 6 5 8 10 11 12 11 10
8 6 8 10 12 13 14 15 14 13 13 13 14 14 13 12 10 14 14 14 15 13 14 13 12 11 11 14 14 15 11 9 6 6 5 5 6 10 9 9 10 9 9
6 6 5 6 9 11 12 12 12 12 12 12 13 12 11 10 12 10 12 13 13 12 12 12 11 10 10 11 11 11 9 8 5 4 4 3 8 7 7 6 6 6 5
6 5 4 5 5 6 7 11 11 10 11 11 10 10 9 9 10 9 7 10 12 12 11 10 9 8 8 8 8 9 8 6 4 3 3 2 5 6 5 5 5 4 4
6 6 6 6 5 5 5 6 8 9 9 9 8 8 7 4 5 6 7 10 10 10 10 8 7 6 6 7 9 9 7 1 2 1 1 3 3 3 3 3 2 1 1
8 7 6 6 8 7 6 5 5 5 4 4 5 5 4 4 4 4 6 7 8 9 7 5 4 3 3 3 3 5 2 1 1 1 1 3 1 1 1 1 2 2 3
11 7 7 6 7 7 6 4 3 2 3 3 5 4 3 3 3 3 2 2 2 4 2 2 2 1 3 2 3 3 3 2 0 2 3 5 4 3 4 4 5 6 6
10 10 8 8 7 6 5 4 4 3 3 3 4 5 4 3 3 3 2 2 2 1 1 1 1 2 3 2 2 3 3 3 1 1 3 7 8 7 7 8 8 8 9
11 11 10 8 7 5 5 4 4 4 4 4 4 5 4 4 4 3 2 2 2 2 2 2 2 2 3 4 4 3 4 4 4 2 2 7 9 11 12 12 12 13 12
12 13 11 9 8 7 5 5 5 4 5 4 4 4 5 4 4 3 3 4 3 4 3 3 3 2 3 2 4 5 6 5 5 5 3 4 9 13 15 16 16 16 17
12 14 12 11 10 11 8 6 5 4 5 4 4 6 5 5 4 4 3 3 4 2 2 1 1 1 2 2 4 4 5 6 5 6 5 4 5 9 13 18 19 19 19
13 13 12 10 10 9 7 6 4 4 4 4 4 5 7 6 6 4 3 3 3 2 2 1 2 3 3 3 4 4 4 5 6 7 6 6 5 5 8 15 17 20 22
15 14 12 9 11 10 7 5 7 6 4 3 3 4 5 5 6 4 3 3 3 2 2 2 2 1 2 3 4 4 5 5 6 5 8 7 7 7 6 10 15 16 20
13 14 14 11 10 9 5 4 3 3 3 3 3 3 4 4 5 5 4 5 4 3 3 2 3 2 3 3 4 5 6 5 5 5 7 5 5 6 6 6 6 6 13
6 11 13 13 10 8 5 5 4 4 3 2 3 5 5 5 5 5 4 4 4 4 4 4 2 3 2 1 2 4 4 6 6 4 5 5 6 6 5 5 5 5 6
7 7 7 12 13 11 9 6 3 4 2 3 5 5 5 5 5 5 5 4 5 3 4 4 4 2 2 1 2 1 4 4 3 4 4 4 6 4 5 6 6 7 7
4 4 6 9 12 13 11 7 3 4 2 3 3 3 5 6 5 5 5 2 3 3 4 3 3 3 2 1 3 2 3 3 4 2 7 3 5 3 4 5 6 7 7
4 3 3 5 9 10 11 10 10 6 4 3 4 3 3 4 3 1 2 2 0 0 1 1 1 2 2 3 1 1 3 2 3 7 2 4 5 5 6 5 5 7 7
2 4 5 6 6 9 12 10 9 7 4 3 2 4 6 8 9 8 6 6 5 4 4 4 4 2 1 1 2 1 1 1 3 3 11 7 9 4 4 5 6 6 7
1 1 3 6 5 8 12 8 11 10 8 6 4 6 5 5 5 7 7 6 6 5 5 4 5 6 4 2 2 2 1 2 4 4 9 13 15 6 3 6 5 6 6
Wind_Direction
201 136 109 114 111 109 104 99 95 95 93 90 89 83 82 81 79 74 73 75 77 85 79 73 77 75 73 72 76 74 74 73 69 65 67 73 76 75 72 71 62 68 70
136 126 118 110 116 114 110 104 95 92 92 90 90 88 85 81 80 82 74 70 73 75 77 76 79 78 75 76 78 80 75 71 68 66 63 60 71 71 65 64 70 66 68
136 126 114 102 112 118 113 104 97 97 95 91 95 101 92 85 86 84 81 77 83 83 76 83 81 81 72 66 63 84 83 74 66 58 59 55 58 74 73 67 68 66 62
131 124 117 109 107 117 110 104 100 99 96 97 95 90 96 90 88 87 86 88 90 83 88 85 82 76 67 58 57 73 75 73 58 48 39 46 56 68 71 70 68 66 64
120 117 122 120 120 120 116 107 102 99 101 102 94 83 98 96 89 88 87 85 85 86 81 82 80 72 64 58 56 85 77 70 62 50 37 46 40 71 71 67 64 64 62
111 107 106 109 116 125 117 113 106 104 104 102 100 91 89 100 92 96 97 96 91 87 88 82 77 70 65 61 53 75 79 79 66 52 45 31 33 56 70 71 69 62 59
125 128 117 109 111 126 126 121 113 116 117 111 106 100 93 95 103 104 92 77 101 94 89 84 76 71 65 64 58 70 69 82 85 65 54 42 29 56 58 60 58 61 59
132 128 127 119 109 130 133 125 122 124 122 115 109 102 96 81 106 117 103 91 89 90 95 86 76 67 57 59 57 54 50 63 63 70 58 40 39 61 59 53 55 59 63
121 116 117 119 122 116 124 125 123 126 124 117 110 105 98 85 75 108 111 103 98 96 92 85 75 62 48 48 54 50 48 86 75 66 56 43 40 46 49 53 57 61 53
110 98 108 109 105 109 129 124 123 124 117 116 116 111 104 95 83 77 72 108 100 100 97 89 78 62 40 31 34 57 55 83 86 78 65 54 51 50 56 58 56 55 61
140 143 144 132 120 109 105 121 119 124 126 126 125 123 105 103 91 80 84 92 95 97 96 92 85 64 32 6 8 7 69 97 103 77 96 101 65 56 51 44 39 36 28
159 164 165 155 149 145 141 145 140 138 141 137 132 126 116 118 119 102 93 90 95 100 103 97 104 67 20 346 340 0 16 55 154 217 254 168 121 20 346 323 289 267 264
169 161 176 172 162 155 149 154 148 147 144 142 144 146 128 128 112 99 89 73 83 93 51 47 36 14 341 334 347 340 344 39 259 238 270 233 221 243 256 264 270 274 272
168 171 176 172 170 169 151 164 160 152 161 159 170 151 138 136 148 153 158 162 153 176 179 250 291 301 311 307 313 328 328 327 314 285 256 263 252 257 266 265 255 259 262
167 174 177 168 168 170 159 158 164 173 171 184 176 165 156 156 172 173 182 191 198 193 207 226 259 282 304 316 322 320 311 304 299 277 271 266 261 262 268 273 272 264 265
176 176 171 167 160 163 169 174 178 177 183 171 175 179 171 165 171 181 190 204 211 207 210 209 221 253 284 315 308 301 289 289 286 279 264 263 262 258 260 267 273 273 274
187 180 179 171 161 166 172 173 176 188 172 167 173 183 178 171 189 189 191 210 229 257 236 222 270 301 301 307 282 291 295 289 292 291 283 267 262 257 257 260 267 272 274
183 185 186 179 171 161 168 159 158 167 167 175 171 178 179 187 186 184 198 222 230 205 203 246 264 278 264 274 287 286 285 281 274 273 268 260 260 265 262 259 262 266 270
184 182 185 179 180 175 175 169 172 182 182 173 135 163 192 187 182 177 201 224 196 191 202 214 236 227 277 277 276 276 264 263 260 267 269 269 261 256 261 263 256 259 265
182 181 180 179 184 177 161 153 137 180 174 180 176 177 182 192 196 197 198 215 207 211 225 204 234 248 259 273 282 281 280 272 265 258 270 276 266 265 257 261 271 269 262
162 175 182 173 180 167 160 167 172 196 177 180 196 213 203 206 206 205 215 204 203 220 220 212 217 245 285 269 312 308 292 264 265 285 264 271 276 276 273 269 268 264 273
148 163 172 189 175 179 175 174 154 156 180 181 195 198 201 199 212 225 220 205 204 211 228 226 205 220 250 202 277 247 321 314 341 285 304 292 295 311 302 289 277 272 275
155 171 168 183 180 182 175 163 115 102 108 165 200 202 207 203 210 218 254 247 224 190 233 217 223 210 252 297 225 271 318 267 323 303 299 274 271 266 286 284 281 276 270
173 185 211 191 176 176 168 172 169 163 169 190 189 191 172 207 224 279 329 43 19 190 261 265 240 216 199 249 324 213 269 276 295 309 329 293 306 308 293 283 273 270 263
136 204 199 214 196 176 175 180 169 165 136 121 120 130 70 62 55 53 53 54 61 61 63 59 51 35 78 280 214 319 291 284 255 275 304 311 299 300 273 275 278 279 279
35 198 183 183 181 172 176 166 162 148 138 127 118 102 85 72 61 50 48 56 51 50 37 37 45 51 39 22 21 344 308 304 312 306 301 311 306 302 281 277 272 269 269